Time,TemperatureF,DewpointF,PressureIn,WindDirection,WindDirectionDegrees,WindSpeedMPH,WindSpeedGustMPH,Humidity,HourlyPrecipIn,Conditions,Clouds,dailyrainin,SoftwareType,DateUTC
2013-03-14 08:01:00,32.7,22.2,29.56,NNW,338,0.0,0.0,65,0.00,CLR,,0.00,WeatherDisplay:10.37,2013-03-14 14:01:00,
2013-03-14 08:06:00,32.7,22.2,29.56,North,0,0.0,0.0,65,0.00,CLR,,0.00,WeatherDisplay:10.37,2013-03-14 14:06:00,
2013-03-14 08:12:00,32.5,22.4,29.55,NNW,338,0.0,0.0,66,0.00,CLR,,0.00,WeatherDisplay:10.37,2013-03-14 14:12:00,
2013-03-14 08:17:00,32.5,22.4,29.55,North,0,0.0,0.0,66,0.00,CLR,,0.00,WeatherDisplay:10.37,2013-03-14 14:17:00,
2013-03-14 08:22:00,32.9,22.8,29.55,North,0,0.0,0.0,66,0.00,CLR,,0.00,WeatherDisplay:10.37,2013-03-14 14:22:00,
2013-03-14 08:27:00,32.9,22.8,29.55,North,0,0.0,0.0,66,0.00,CLR,,0.00,WeatherDisplay:10.37,2013-03-14 14:27:00,
2013-03-14 08:32:00,33.3,23.1,29.57,NNE,22,0.0,0.0,66,0.00,CLR,,0.00,WeatherDisplay:10.37,2013-03-14 14:32:00,
2013-03-14 08:37:00,33.6,23.5,29.57,NNW,338,0.0,0.0,66,0.00,CLR,,0.00,WeatherDisplay:10.37,2013-03-14 14:37:00,
2013-03-14 08:42:00,33.8,23.6,29.57,North,0,0.0,0.0,66,0.00,CLR,,0.00,WeatherDisplay:10.37,2013-03-14 14:42:00,
2013-03-14 08:47:00,34.0,23.8,29.57,NW,315,0.0,0.0,66,0.00,CLR,,0.00,WeatherDisplay:10.37,2013-03-14 14:47:00,
2013-03-14 08:52:00,34.3,24.2,29.56,NNW,338,0.0,0.0,66,0.00,CLR,,0.00,WeatherDisplay:10.37,2013-03-14 14:52:00,
2013-03-14 08:57:00,34.7,24.5,29.56,NNW,338,0.0,0.0,66,0.00,CLR,,0.00,WeatherDisplay:10.37,2013-03-14 14:57:00,
2013-03-14 09:02:00,34.9,24.7,29.56,NNW,338,0.0,0.0,66,0.00,CLR,,0.00,WeatherDisplay:10.37,2013-03-14 15:02:00,
2013-03-14 09:07:00,35.6,25.4,29.57,NNW,338,0.0,0.0,66,0.00,CLR,,0.00,WeatherDisplay:10.37,2013-03-14 15:07:00,
2013-03-14 09:12:00,35.6,25.4,29.57,NNW,338,0.0,0.0,66,0.00,CLR,,0.00,WeatherDisplay:10.37,2013-03-14 15:12:00,
2013-03-14 09:17:00,36.3,26.0,29.57,NNW,338,0.0,0.0,66,0.00,CLR,,0.00,WeatherDisplay:10.37,2013-03-14 15:17:00,
2013-03-14 09:22:00,36.9,26.6,29.57,NNE,22,0.0,0.0,66,0.00,CLR,,0.00,WeatherDisplay:10.37,2013-03-14 15:22:00,
2013-03-14 09:27:00,37.2,26.9,29.57,NNW,338,0.0,0.0,66,0.00,CLR,,0.00,WeatherDisplay:10.37,2013-03-14 15:27:00,
2013-03-14 09:32:00,37.4,27.1,29.57,NNW,338,0.0,0.0,66,0.00,CLR,,0.00,WeatherDisplay:10.37,2013-03-14 15:32:00,
2013-03-14 09:37:00,37.8,27.4,29.57,North,0,0.0,0.0,66,0.00,CLR,,0.00,WeatherDisplay:10.37,2013-03-14 15:37:00,
2013-03-14 09:42:00,38.3,27.9,29.57,NNW,338,0.0,0.0,66,0.00,CLR,,0.00,WeatherDisplay:10.37,2013-03-14 15:42:00,
2013-03-14 09:47:00,39.0,28.2,29.57,WNW,292,0.0,0.0,65,0.00,CLR,,0.00,WeatherDisplay:10.37,2013-03-14 15:47:00,
2013-03-14 09:52:00,39.2,28.8,29.57,NNW,338,0.0,0.0,66,0.00,CLR,,0.00,WeatherDisplay:10.37,2013-03-14 15:52:00,
2013-03-14 09:57:00,39.9,29.1,29.57,North,0,0.0,0.0,65,0.00,CLR,,0.00,WeatherDisplay:10.37,2013-03-14 15:57:00,
2013-03-14 10:02:00,40.3,29.4,29.57,NNW,338,0.0,0.0,65,0.00,CLR,,0.00,WeatherDisplay:10.37,2013-03-14 16:02:00,
2013-03-14 10:07:00,40.6,29.8,29.57,North,0,0.0,0.0,65,0.00,CLR,,0.00,WeatherDisplay:10.37,2013-03-14 16:07:00,
2013-03-14 10:12:00,41.2,30.3,29.57,NNW,338,0.0,0.0,65,0.00,CLR,,0.00,WeatherDisplay:10.37,2013-03-14 16:12:00,
2013-03-14 10:17:00,41.7,30.8,29.57,ENE,68,0.0,0.0,65,0.00,CLR,,0.00,WeatherDisplay:10.37,2013-03-14 16:17:00,
2013-03-14 10:22:00,42.1,31.2,29.57,NNW,338,0.0,0.0,65,0.00,CLR,,0.00,WeatherDisplay:10.37,2013-03-14 16:22:00,
2013-03-14 10:28:00,43.0,31.6,29.56,North,0,0.0,0.0,64,0.00,CLR,,0.00,WeatherDisplay:10.37,2013-03-14 16:28:00,
2013-03-14 10:33:00,43.3,32.0,29.56,ENE,68,0.0,0.0,64,0.00,CLR,,0.00,WeatherDisplay:10.37,2013-03-14 16:33:00,
2013-03-14 10:38:00,43.5,32.1,29.56,NNW,338,0.0,0.0,64,0.00,CLR,,0.00,WeatherDisplay:10.37,2013-03-14 16:38:00,
2013-03-14 10:43:00,44.1,32.7,29.56,NNW,338,0.0,0.0,64,0.00,CLR,,0.00,WeatherDisplay:10.37,2013-03-14 16:43:00,
2013-03-14 10:48:00,44.2,32.8,29.56,NW,315,0.0,0.0,64,0.00,CLR,,0.00,WeatherDisplay:10.37,2013-03-14 16:48:00,
2013-03-14 10:53:00,44.8,33.3,29.56,North,0,0.0,0.0,64,0.00,CLR,,0.00,WeatherDisplay:10.37,2013-03-14 16:53:00,
2013-03-14 10:58:00,45.1,33.3,29.56,SE,135,0.0,0.0,63,0.00,CLR,,0.00,WeatherDisplay:10.37,2013-03-14 16:58:00,
2013-03-14 11:03:00,45.9,34.0,29.56,NE,45,0.0,0.0,63,0.00,CLR,,0.00,WeatherDisplay:10.37,2013-03-14 17:03:00,
2013-03-14 11:08:00,46.4,34.5,29.57,NNW,338,0.0,0.0,63,0.00,CLR,,0.00,WeatherDisplay:10.37,2013-03-14 17:08:00,
2013-03-14 11:13:00,47.3,35.3,29.57,NW,315,0.0,0.0,63,0.00,CLR,,0.00,WeatherDisplay:10.37,2013-03-14 17:13:00,
2013-03-14 11:18:00,47.7,35.7,29.57,NNE,22,0.0,0.0,63,0.00,CLR,,0.00,WeatherDisplay:10.37,2013-03-14 17:18:00,
2013-03-14 11:23:00,48.4,36.0,29.57,North,0,0.0,0.0,62,0.00,CLR,,0.00,WeatherDisplay:10.37,2013-03-14 17:23:00,
2013-03-14 11:28:00,48.6,36.1,29.56,ESE,112,0.0,0.0,62,0.00,CLR,,0.00,WeatherDisplay:10.37,2013-03-14 17:28:00,
2013-03-14 11:34:00,49.3,36.4,29.56,WNW,292,0.0,0.0,61,0.00,CLR,,0.00,WeatherDisplay:10.37,2013-03-14 17:34:00,
2013-03-14 11:39:00,49.8,36.9,29.56,NNW,338,0.0,0.0,61,0.00,CLR,,0.00,WeatherDisplay:10.37,2013-03-14 17:39:00,
2013-03-14 11:44:00,50.0,36.7,29.56,NNW,338,0.0,0.0,60,0.00,CLR,,0.00,WeatherDisplay:10.37,2013-03-14 17:44:00,
2013-03-14 11:49:00,50.2,36.4,29.55,North,0,0.0,0.0,59,0.00,CLR,,0.00,WeatherDisplay:10.37,2013-03-14 17:49:00,
2013-03-14 11:54:00,50.7,36.9,29.55,NNW,338,0.0,0.0,59,0.00,CLR,,0.00,WeatherDisplay:10.37,2013-03-14 17:54:00,
2013-03-14 11:59:00,51.3,37.0,29.55,WSW,248,0.0,0.0,58,0.00,CLR,,0.00,WeatherDisplay:10.37,2013-03-14 17:59:00,
2013-03-14 12:04:00,51.6,36.9,29.55,WSW,248,0.0,0.0,57,0.00,CLR,,0.00,WeatherDisplay:10.37,2013-03-14 18:04:00,
2013-03-14 12:09:00,51.6,36.9,29.53,WSW,248,0.0,0.0,57,0.00,CLR,,0.00,WeatherDisplay:10.37,2013-03-14 18:09:00,
2013-03-14 12:14:00,52.9,37.1,29.53,NW,315,0.0,0.1,55,0.00,CLR,,0.00,WeatherDisplay:10.37,2013-03-14 18:14:00,
2013-03-14 12:19:00,53.4,37.2,29.53,ENE,68,3.5,3.5,54,0.00,CLR,,0.00,WeatherDisplay:10.37,2013-03-14 18:19:00,
2013-03-14 12:24:00,54.3,37.5,29.53,WSW,248,1.1,1.1,53,0.00,CLR,,0.00,WeatherDisplay:10.37,2013-03-14 18:24:00,
2013-03-14 12:29:00,55.0,37.7,29.55,SSE,158,0.0,0.7,52,0.00,CLR,,0.00,WeatherDisplay:10.37,2013-03-14 18:29:00,
2013-03-14 12:34:00,55.6,37.7,29.55,ENE,68,2.3,2.3,51,0.00,CLR,,0.00,WeatherDisplay:10.37,2013-03-14 18:34:00,
2013-03-14 12:39:00,56.3,37.9,29.55,North,0,5.8,5.8,50,0.00,CLR,,0.00,WeatherDisplay:10.37,2013-03-14 18:39:00,
2013-03-14 12:44:00,56.7,38.2,29.55,NW,315,2.3,2.3,50,0.00,CLR,,0.00,WeatherDisplay:10.37,2013-03-14 18:44:00,
2013-03-14 12:49:00,57.4,38.4,29.54,WSW,248,0.0,0.5,49,0.00,CLR,,0.00,WeatherDisplay:10.37,2013-03-14 18:49:00,
2013-03-14 12:54:00,57.7,38.7,29.54,NNW,338,0.0,0.0,49,0.00,CLR,,0.00,WeatherDisplay:10.37,2013-03-14 18:54:00,
2013-03-14 12:59:00,58.3,38.7,29.54,SE,135,0.0,0.2,48,0.00,CLR,,0.00,WeatherDisplay:10.37,2013-03-14 18:59:00,
2013-03-14 13:04:00,58.8,39.2,29.54,WNW,292,0.0,0.6,48,0.00,CLR,,0.00,WeatherDisplay:10.37,2013-03-14 19:04:00,
2013-03-14 13:09:00,59.4,39.1,29.57,East,90,0.0,0.5,47,0.00,CLR,,0.00,WeatherDisplay:10.37,2013-03-14 19:09:00,
2013-03-14 13:14:00,59.7,39.4,29.57,NNW,338,0.0,0.1,47,0.00,CLR,,0.00,WeatherDisplay:10.37,2013-03-14 19:14:00,
2013-03-14 13:19:00,60.3,39.4,29.57,East,90,0.0,0.3,46,0.00,CLR,,0.00,WeatherDisplay:10.37,2013-03-14 19:19:00,
2013-03-14 13:24:00,60.6,39.1,29.57,NNW,338,2.3,2.3,45,0.00,CLR,,0.00,WeatherDisplay:10.37,2013-03-14 19:24:00,
2013-03-14 13:29:00,61.0,40.0,29.58,SW,225,0.0,0.9,46,0.00,CLR,,0.00,WeatherDisplay:10.37,2013-03-14 19:29:00,
2013-03-14 13:34:00,61.3,39.8,29.58,NE,45,3.5,3.5,45,0.00,CLR,,0.00,WeatherDisplay:10.37,2013-03-14 19:34:00,
2013-03-14 13:39:00,62.1,39.9,29.58,SW,225,0.0,0.3,44,0.00,CLR,,0.00,WeatherDisplay:10.37,2013-03-14 19:39:00,
2013-03-14 13:44:00,62.2,40.6,29.58,ENE,68,0.0,0.2,45,0.00,CLR,,0.00,WeatherDisplay:10.37,2013-03-14 19:44:00,
2013-03-14 13:49:00,62.8,40.5,29.58,North,0,5.1,5.1,44,0.00,CLR,,0.00,WeatherDisplay:10.37,2013-03-14 19:49:00,
2013-03-14 13:54:00,62.6,39.8,29.58,WSW,248,2.5,2.5,43,0.00,CLR,,0.00,WeatherDisplay:10.37,2013-03-14 19:54:00,
2013-03-14 13:59:00,63.0,40.1,29.58,NNW,338,3.5,3.5,43,0.00,CLR,,0.00,WeatherDisplay:10.37,2013-03-14 19:59:00,
2013-03-14 14:04:00,63.5,40.6,29.58,SW,225,2.3,2.3,43,0.00,CLR,,0.00,WeatherDisplay:10.37,2013-03-14 20:04:00,
2013-03-14 14:09:00,63.5,40.0,29.56,South,180,0.0,2.1,42,0.00,CLR,,0.00,WeatherDisplay:10.37,2013-03-14 20:09:00,
2013-03-14 14:14:00,63.9,40.3,29.56,WSW,248,3.5,3.5,42,0.00,CLR,,0.00,WeatherDisplay:10.37,2013-03-14 20:14:00,
2013-03-14 14:19:00,63.9,40.3,29.56,ENE,68,0.0,0.9,42,0.00,CLR,,0.00,WeatherDisplay:10.37,2013-03-14 20:19:00,
2013-03-14 14:24:00,63.9,39.7,29.56,NW,315,6.9,6.9,41,0.00,CLR,,0.00,WeatherDisplay:10.37,2013-03-14 20:24:00,
2013-03-14 14:29:00,63.9,39.7,29.55,NW,315,1.1,1.1,41,0.00,CLR,,0.00,WeatherDisplay:10.37,2013-03-14 20:29:00,
2013-03-14 14:35:00,63.7,39.5,29.55,ENE,68,0.0,0.6,41,0.00,CLR,,0.00,WeatherDisplay:10.37,2013-03-14 20:35:00,
2013-03-14 14:40:00,63.5,39.4,29.55,NW,315,0.0,0.6,41,0.00,CLR,,0.00,WeatherDisplay:10.37,2013-03-14 20:40:00,
2013-03-14 14:45:00,63.5,39.4,29.55,NNE,22,0.0,0.3,41,0.00,CLR,,0.00,WeatherDisplay:10.37,2013-03-14 20:45:00,
2013-03-14 14:50:00,63.9,39.7,29.49,SSW,202,13.8,13.8,41,0.00,CLR,,0.00,WeatherDisplay:10.37,2013-03-14 20:50:00,
2013-03-14 14:55:00,63.7,39.5,29.49,North,0,0.0,1.4,41,0.00,CLR,,0.00,WeatherDisplay:10.37,2013-03-14 20:55:00,
2013-03-14 15:00:00,64.0,39.8,29.49,North,0,0.0,0.6,41,0.00,CLR,,0.00,WeatherDisplay:10.37,2013-03-14 21:00:00,
2013-03-14 15:05:00,64.2,40.0,29.49,WNW,292,0.0,0.0,41,0.00,CLR,,0.00,WeatherDisplay:10.37,2013-03-14 21:05:00,
2013-03-14 15:10:00,64.2,40.0,29.52,NNW,338,0.0,0.5,41,0.00,CLR,,0.00,WeatherDisplay:10.37,2013-03-14 21:10:00,
2013-03-14 15:15:00,64.2,40.0,29.52,WNW,292,0.0,0.5,41,0.00,CLR,,0.00,WeatherDisplay:10.37,2013-03-14 21:15:00,
2013-03-14 15:20:00,64.2,39.4,29.52,ENE,68,6.9,6.9,40,0.00,CLR,,0.00,WeatherDisplay:10.37,2013-03-14 21:20:00,
2013-03-14 15:25:00,64.0,39.2,29.52,East,90,2.6,2.6,40,0.00,CLR,,0.00,WeatherDisplay:10.37,2013-03-14 21:25:00,
2013-03-14 15:30:00,64.2,39.4,29.50,East,90,5.8,5.8,40,0.00,CLR,,0.00,WeatherDisplay:10.37,2013-03-14 21:30:00,
2013-03-14 15:35:00,64.2,39.4,29.50,WSW,248,0.0,0.7,40,0.00,CLR,,0.00,WeatherDisplay:10.37,2013-03-14 21:35:00,
2013-03-14 15:40:00,64.8,39.9,29.50,SW,225,0.0,0.1,40,0.00,CLR,,0.00,WeatherDisplay:10.37,2013-03-14 21:40:00,
2013-03-14 15:45:00,64.9,40.0,29.50,NW,315,1.1,1.1,40,0.00,CLR,,0.00,WeatherDisplay:10.37,2013-03-14 21:45:00,
2013-03-14 15:50:00,64.9,40.0,29.47,WNW,292,1.1,1.1,40,0.00,CLR,,0.00,WeatherDisplay:10.37,2013-03-14 21:50:00,
2013-03-14 15:55:00,64.9,40.0,29.47,NNW,338,0.0,0.2,40,0.00,CLR,,0.00,WeatherDisplay:10.37,2013-03-14 21:55:00,
2013-03-14 16:00:00,64.6,39.0,29.47,ESE,112,3.5,3.5,39,0.00,CLR,,0.00,WeatherDisplay:10.37,2013-03-14 22:00:00,
2013-03-14 16:05:00,64.2,38.7,29.47,NNW,338,0.0,0.1,39,0.00,CLR,,0.00,WeatherDisplay:10.37,2013-03-14 22:05:00,
2013-03-14 16:10:00,63.9,38.4,29.46,North,0,2.3,2.3,39,0.00,CLR,,0.00,WeatherDisplay:10.37,2013-03-14 22:10:00,
2013-03-14 16:15:00,63.7,38.2,29.46,East,90,0.0,0.5,39,0.00,CLR,,0.00,WeatherDisplay:10.37,2013-03-14 22:15:00,
2013-03-14 16:20:00,63.7,37.6,29.46,South,180,2.3,2.3,38,0.00,CLR,,0.00,WeatherDisplay:10.37,2013-03-14 22:20:00,
2013-03-14 16:25:00,64.0,38.6,29.46,SSW,202,1.1,1.5,39,0.00,CLR,,0.00,WeatherDisplay:10.37,2013-03-14 22:25:00,
2013-03-14 16:30:00,64.2,38.7,29.44,SW,225,0.0,1.0,39,0.00,CLR,,0.00,WeatherDisplay:10.37,2013-03-14 22:30:00,
2013-03-14 16:35:00,64.2,38.7,29.44,WNW,292,0.0,0.1,39,0.00,CLR,,0.00,WeatherDisplay:10.37,2013-03-14 22:35:00,
2013-03-14 16:40:00,64.2,38.7,29.44,NNW,338,0.0,0.0,39,0.00,CLR,,0.00,WeatherDisplay:10.37,2013-03-14 22:40:00,
2013-03-14 16:45:00,64.0,38.6,29.44,North,0,0.0,0.0,39,0.00,CLR,,0.00,WeatherDisplay:10.37,2013-03-14 22:45:00,
2013-03-14 16:50:00,63.9,38.4,29.44,WSW,248,0.0,0.0,39,0.00,CLR,,0.00,WeatherDisplay:10.37,2013-03-14 22:50:00,
2013-03-14 16:55:00,63.9,38.4,29.44,East,90,0.0,0.0,39,0.00,CLR,,0.00,WeatherDisplay:10.37,2013-03-14 22:55:00,
2013-03-14 17:00:00,63.9,38.4,29.44,East,90,0.0,0.0,39,0.00,CLR,,0.00,WeatherDisplay:10.37,2013-03-14 23:00:00,
2013-03-14 17:05:00,63.9,39.1,29.44,North,0,0.0,0.0,40,0.00,CLR,,0.00,WeatherDisplay:10.37,2013-03-14 23:05:00,
2013-03-14 17:10:00,63.7,38.9,29.44,WSW,248,0.0,0.0,40,0.00,CLR,,0.00,WeatherDisplay:10.37,2013-03-14 23:10:00,
2013-03-14 17:15:00,63.3,38.6,29.44,North,0,0.0,0.0,40,0.00,CLR,,0.00,WeatherDisplay:10.37,2013-03-14 23:15:00,
2013-03-14 17:20:00,63.3,38.6,29.44,North,0,0.0,0.0,40,0.00,CLR,,0.00,WeatherDisplay:10.37,2013-03-14 23:20:00,
2013-03-14 17:25:00,63.0,38.2,29.44,NW,315,0.0,0.0,40,0.00,CLR,,0.00,WeatherDisplay:10.37,2013-03-14 23:25:00,
2013-03-14 17:30:00,62.8,38.1,29.44,NNW,338,0.0,0.0,40,0.00,CLR,,0.00,WeatherDisplay:10.37,2013-03-14 23:30:00,
2013-03-14 17:35:00,62.8,38.1,29.44,North,0,0.0,0.0,40,0.00,CLR,,0.00,WeatherDisplay:10.37,2013-03-14 23:35:00,
2013-03-14 17:40:00,62.4,37.8,29.44,NW,315,0.0,0.0,40,0.00,CLR,,0.00,WeatherDisplay:10.37,2013-03-14 23:40:00,
2013-03-14 17:45:00,62.2,37.0,29.44,North,0,0.0,0.0,39,0.00,CLR,,0.00,WeatherDisplay:10.37,2013-03-14 23:45:00,
2013-03-14 17:50:00,62.1,36.8,29.41,West,270,0.0,0.0,39,0.00,CLR,,0.00,WeatherDisplay:10.37,2013-03-14 23:50:00,
2013-03-14 17:55:00,62.1,36.8,29.41,NW,315,0.0,0.0,39,0.00,CLR,,0.00,WeatherDisplay:10.37,2013-03-14 23:55:00,
2013-03-14 18:00:00,61.9,36.6,29.41,NE,45,0.0,0.0,39,0.00,CLR,,0.00,WeatherDisplay:10.37,2013-03-15 00:00:00,
2013-03-14 18:05:00,61.7,36.5,29.41,NW,315,0.0,0.0,39,0.00,CLR,,0.00,WeatherDisplay:10.37,2013-03-15 00:05:00,
2013-03-14 18:10:00,61.5,36.3,29.42,WNW,292,0.0,0.0,39,0.00,CLR,,0.00,WeatherDisplay:10.37,2013-03-15 00:10:00,
2013-03-14 18:15:00,61.3,36.2,29.42,ENE,68,0.0,0.0,39,0.00,CLR,,0.00,WeatherDisplay:10.37,2013-03-15 00:15:00,
2013-03-14 18:20:00,61.2,36.0,29.42,North,0,0.0,0.0,39,0.00,CLR,,0.00,WeatherDisplay:10.37,2013-03-15 00:20:00,
2013-03-14 18:25:00,60.8,35.7,29.42,WNW,292,0.0,0.0,39,0.00,CLR,,0.00,WeatherDisplay:10.37,2013-03-15 00:25:00,
2013-03-14 18:30:00,60.6,35.5,29.42,WSW,248,0.0,0.0,39,0.00,CLR,,0.00,WeatherDisplay:10.37,2013-03-15 00:30:00,
2013-03-14 18:35:00,60.3,35.2,29.42,North,0,0.0,0.0,39,0.00,CLR,,0.00,WeatherDisplay:10.37,2013-03-15 00:35:00,
2013-03-14 18:40:00,60.1,35.0,29.42,NW,315,0.0,0.0,39,0.00,CLR,,0.00,WeatherDisplay:10.37,2013-03-15 00:40:00,
2013-03-14 18:45:00,59.9,34.9,29.42,NW,315,0.0,0.0,39,0.00,CLR,,0.00,WeatherDisplay:10.37,2013-03-15 00:45:00,
2013-03-14 18:50:00,59.5,34.5,29.41,NNW,338,0.0,0.0,39,0.00,CLR,,0.00,WeatherDisplay:10.37,2013-03-15 00:50:00,
2013-03-14 18:55:00,59.2,34.2,29.41,ENE,68,0.0,0.0,39,0.00,CLR,,0.00,WeatherDisplay:10.37,2013-03-15 00:55:00,
2013-03-14 19:00:00,59.0,34.1,29.41,NE,45,0.0,0.0,39,0.00,CLR,,0.00,WeatherDisplay:10.37,2013-03-15 01:00:00,
2013-03-14 19:05:00,58.6,33.7,29.41,SE,135,0.0,0.0,39,0.00,CLR,,0.00,WeatherDisplay:10.37,2013-03-15 01:05:00,
2013-03-14 19:10:00,57.9,33.7,29.40,NNW,338,0.0,0.0,40,0.00,CLR,,0.00,WeatherDisplay:10.37,2013-03-15 01:10:00,
2013-03-14 19:15:00,57.4,33.2,29.40,WNW,292,0.0,0.0,40,0.00,CLR,,0.00,WeatherDisplay:10.37,2013-03-15 01:15:00,
2013-03-14 19:20:00,56.7,33.2,29.40,West,270,0.0,0.0,41,0.00,CLR,,0.00,WeatherDisplay:10.37,2013-03-15 01:20:00,
2013-03-14 19:25:00,55.9,32.6,29.40,WNW,292,0.0,0.0,41,0.00,CLR,,0.00,WeatherDisplay:10.37,2013-03-15 01:25:00,
2013-03-14 19:30:00,55.4,32.1,29.40,NNW,338,0.0,0.0,41,0.00,CLR,,0.00,WeatherDisplay:10.37,2013-03-15 01:30:00,
2013-03-14 19:35:00,54.5,31.9,29.40,East,90,0.0,0.0,42,0.00,CLR,,0.00,WeatherDisplay:10.37,2013-03-15 01:35:00,
2013-03-14 19:40:00,54.1,31.5,29.40,North,0,0.0,0.0,42,0.00,CLR,,0.00,WeatherDisplay:10.37,2013-03-15 01:40:00,
2013-03-14 19:45:00,52.9,30.4,29.40,North,0,0.0,0.0,42,0.00,CLR,,0.00,WeatherDisplay:10.37,2013-03-15 01:45:00,
2013-03-14 19:50:00,52.3,30.5,29.40,ENE,68,0.0,0.0,43,0.00,CLR,,0.00,WeatherDisplay:10.37,2013-03-15 01:50:00,
2013-03-14 19:55:00,51.4,29.7,29.40,West,270,0.0,0.0,43,0.00,CLR,,0.00,WeatherDisplay:10.37,2013-03-15 01:55:00,
2013-03-14 20:00:00,50.9,29.7,29.40,WNW,292,0.0,0.0,44,0.00,CLR,,0.00,WeatherDisplay:10.37,2013-03-15 02:00:00,
2013-03-14 20:05:00,50.2,29.1,29.40,North,0,0.0,0.0,44,0.00,CLR,,0.00,WeatherDisplay:10.37,2013-03-15 02:05:00,
2013-03-14 20:10:00,49.8,28.8,29.40,NNW,338,0.0,0.0,44,0.00,CLR,,0.00,WeatherDisplay:10.37,2013-03-15 02:10:00,
2013-03-14 20:15:00,49.1,28.7,29.40,NNW,338,0.0,0.0,45,0.00,CLR,,0.00,WeatherDisplay:10.37,2013-03-15 02:15:00,
2013-03-14 20:20:00,48.6,28.2,29.40,SW,225,0.0,0.0,45,0.00,CLR,,0.00,WeatherDisplay:10.37,2013-03-15 02:20:00,
2013-03-14 20:25:00,48.2,27.8,29.40,NNW,338,0.0,0.0,45,0.00,CLR,,0.00,WeatherDisplay:10.37,2013-03-15 02:25:00,
2013-03-14 20:30:00,47.8,27.5,29.39,NW,315,0.0,0.0,45,0.00,CLR,,0.00,WeatherDisplay:10.37,2013-03-15 02:30:00,
2013-03-14 20:35:00,47.7,27.3,29.39,NNW,338,0.0,0.0,45,0.00,CLR,,0.00,WeatherDisplay:10.37,2013-03-15 02:35:00,
2013-03-14 20:40:00,47.5,27.2,29.39,NNW,338,0.0,0.0,45,0.00,CLR,,0.00,WeatherDisplay:10.37,2013-03-15 02:40:00,
2013-03-14 20:45:00,47.1,27.4,29.39,NNW,338,0.0,0.0,46,0.00,CLR,,0.00,WeatherDisplay:10.37,2013-03-15 02:45:00,
2013-03-14 20:50:00,47.1,27.4,29.39,NW,315,0.0,0.0,46,0.00,CLR,,0.00,WeatherDisplay:10.37,2013-03-15 02:50:00,
2013-03-14 20:55:00,47.1,27.4,29.39,NNW,338,0.0,0.0,46,0.00,CLR,,0.00,WeatherDisplay:10.37,2013-03-15 02:55:00,
2013-03-14 21:01:00,46.9,27.2,29.39,NNW,338,0.0,0.0,46,0.00,CLR,,0.00,WeatherDisplay:10.37,2013-03-15 03:01:00,
2013-03-14 21:06:00,46.9,27.2,29.39,NNW,338,0.0,0.0,46,0.00,CLR,,0.00,WeatherDisplay:10.37,2013-03-15 03:06:00,
2013-03-14 21:11:00,46.9,27.2,29.37,NNW,338,0.0,0.0,46,0.00,CLR,,0.00,WeatherDisplay:10.37,2013-03-15 03:11:00,
2013-03-14 21:16:00,46.6,27.4,29.37,NNW,338,0.0,0.0,47,0.00,CLR,,0.00,WeatherDisplay:10.37,2013-03-15 03:16:00,
2013-03-14 21:21:00,46.6,27.4,29.37,NNW,338,0.0,0.0,47,0.00,CLR,,0.00,WeatherDisplay:10.37,2013-03-15 03:21:00,
2013-03-14 21:26:00,46.2,27.1,29.37,North,0,0.0,0.0,47,0.00,CLR,,0.00,WeatherDisplay:10.37,2013-03-15 03:26:00,
2013-03-14 21:31:00,45.9,26.7,29.37,NNW,338,0.0,0.0,47,0.00,CLR,,0.00,WeatherDisplay:10.37,2013-03-15 03:31:00,
2013-03-14 21:36:00,45.7,26.6,29.37,North,0,0.0,0.0,47,0.00,CLR,,0.00,WeatherDisplay:10.37,2013-03-15 03:36:00,
2013-03-14 21:41:00,45.7,26.6,29.37,NNW,338,0.0,0.0,47,0.00,CLR,,0.00,WeatherDisplay:10.37,2013-03-15 03:41:00,
2013-03-14 21:46:00,45.5,26.9,29.37,NNW,338,0.0,0.0,48,0.00,CLR,,0.00,WeatherDisplay:10.37,2013-03-15 03:46:00,
2013-03-14 21:51:00,45.5,26.9,29.36,NE,45,0.0,0.0,48,0.00,CLR,,0.00,WeatherDisplay:10.37,2013-03-15 03:51:00,
2013-03-14 21:56:00,45.0,26.4,29.36,NNE,22,0.0,0.0,48,0.00,CLR,,0.00,WeatherDisplay:10.37,2013-03-15 03:56:00,
2013-03-14 22:00:00,44.8,26.3,29.36,North,0,0.0,0.0,48,0.00,CLR,,0.00,WeatherDisplay:10.37,2013-03-15 04:00:00,
2013-03-14 23:56:00,40.6,24.4,29.37,WSW,248,0.0,0.0,52,0.00,CLR,,0.00,WeatherDisplay:10.37,2013-03-15 05:56:00,
2013-03-14 23:57:00,40.6,24.4,29.37,NE,45,0.0,0.0,52,0.00,CLR,,0.00,WeatherDisplay:10.37,2013-03-15 05:57:00,